[[{"header":{"parameterUnit":"m.s-1","parameterCategory":1,"la1":30.2992,"la2":30.254,"lo1":-89.0895,"lo2":-89.0443,"dy":0.0025,"dx":0.0025,"nx":19,"ny":19,"refTime":"2026-04-28T09:00:00:Z","depth":0,"parameterNumber":2,"parameterNumberName":"U-component_of_WINDS"},"data":[0,0,0,-1.7247,-1.7248,-1.7318,-1.7318,-1.7402,-1.7403,0,0,0,0,0,0,0,0,0,0,0,-1.7221,-1.7221,-1.7247,-1.7248,-1.7318,-1.7318,-1.7402,-1.7403,0,0,0,0,0,0,0,0,0,0,0,-1.722,-1.7221,-1.7221,-1.7248,-1.7318,-1.7318,-1.7402,-1.7352,0,0,0,0,0,0,0,0,0,0,-1.7285,-1.7255,-1.7221,-1.7221,-1.7249,-1.7317,-1.7318,-1.7349,-1.7355,-1.7367,0,-1.7375,0,-1.739,-1.7408,-1.7408,0,0,0,-1.7253,-1.7251,-1.7274,-1.7221,-1.7249,-1.7317,-1.7288,-1.7352,-1.7358,-1.7375,-1.7377,-1.738,-1.7392,-1.7408,-1.7409,-1.7462,-1.7462,0,0,-1.7249,-1.7231,-1.727,-1.7278,-1.7264,-1.7285,-1.729,-1.7356,-1.7358,-1.7377,-1.7382,-1.7393,-1.7409,-1.7409,-1.7462,-1.7462,0,0,0,-1.7235,-1.7228,-1.725,-1.7274,-1.7287,-1.7287,-1.7292,-1.7355,-1.7364,-1.7383,-1.7394,-1.7409,-1.741,-1.7462,-1.7462,-1.7445,0,0,0,-1.7233,-1.722,-1.7248,-1.7238,-1.7285,-1.7321,-1.729,-1.7359,-1.7367,-1.7393,-1.7409,-1.7411,-1.7462,-1.7462,-1.7445,-1.744,0,0,0,-1.7218,-1.7218,-1.7226,-1.7237,-1.7266,-1.7321,-1.7333,-1.7361,-1.7374,-1.7408,-1.7411,-1.7462,-1.7462,-1.7446,-1.7441,-1.7448,0,0,0,-1.7198,-1.7211,-1.7225,-1.7245,-1.7265,-1.7309,-1.7333,-1.7367,-1.7395,-1.741,-1.7462,-1.7462,-1.7446,-1.7441,-1.7449,-1.7451,-1.7451,0,0,-1.7204,-1.7211,-1.7224,-1.7239,-1.7275,-1.73,-1.7335,-1.7378,-1.74,-1.7441,-1.7442,-1.7445,-1.7441,-1.7449,-1.7454,-1.7453,0,0,0,-1.722,-1.7229,-1.7243,-1.7267,-1.7299,-1.7327,-1.7366,-1.7383,-1.7418,-1.7416,-1.7451,-1.7449,-1.7454,-1.7456,-1.7456,-1.7462,-1.7462,-1.7462,-1.7462,-1.7204,-1.7228,-1.7251,-1.7284,-1.7308,-1.7348,-1.737,-1.74,-1.7419,-1.7427,-1.7439,-1.7439,-1.744,-1.744,-1.7446,-1.7443,-1.7443,-1.7442,-1.7442,-1.7216,-1.7232,-1.7256,-1.7287,-1.7314,-1.7341,-1.7381,-1.7394,-1.7424,-1.7432,-1.7438,-1.7443,-1.7438,-1.7445,-1.7441,-1.7442,-1.7442,-1.7442,-1.7442,-1.7208,-1.722,-1.7238,-1.7275,-1.7302,-1.7336,-1.7364,-1.7388,-1.7411,-1.7417,-1.7433,-1.7433,-1.7436,-1.7423,-1.7423,-1.7423,-1.7423,-1.7423,-1.7423,-1.7192,-1.7213,-1.7232,-1.7267,-1.7285,-1.7313,-1.7355,-1.7375,-1.7403,-1.7419,-1.7419,-1.7438,-1.7433,-1.7431,-1.7423,-1.7423,-1.7423,-1.7423,-1.7423,-1.7194,-1.7197,-1.7226,-1.7245,-1.7288,-1.7313,-1.7344,-1.7382,-1.7403,-1.7416,-1.7434,-1.7426,-1.7435,-1.7436,-1.7434,-1.7428,-1.7428,-1.7428,-1.7428,-1.7187,-1.7193,-1.7228,-1.7256,-1.7287,-1.7317,-1.7351,-1.7384,-1.7419,-1.7434,-1.7439,-1.7439,-1.7438,-1.7448,-1.7449,-1.7448,-1.7444,-1.7444,-1.7444,-1.719,-1.72,-1.7223,-1.7255,-1.7291,-1.7322,-1.7355,-1.7388,-1.7429,-1.7446,-1.7446,-1.7445,-1.7446,-1.7445,-1.7461,-1.7461,-1.746,0,0]},{"header":{"parameterUnit":"m.s-1","parameterCategory":1,"la1":30.2992,"la2":30.254,"lo1":-89.0895,"lo2":-89.0443,"dy":0.0025,"dx":0.0025,"nx":19,"ny":19,"refTime":"2026-04-28T09:00:00:Z","depth":0,"parameterNumber":3,"parameterNumberName":"V-component_of_WINDS"},"data":[0,0,0,4.1485,4.1485,4.15,4.15,4.1535,4.1536,0,0,0,0,0,0,0,0,0,0,0,4.149,4.1491,4.1485,4.1486,4.15,4.15,4.1535,4.1536,0,0,0,0,0,0,0,0,0,0,0,4.149,4.1491,4.1491,4.1486,4.15,4.15,4.1535,4.1518,0,0,0,0,0,0,0,0,0,0,4.1501,4.1515,4.149,4.1491,4.1486,4.15,4.15,4.1517,4.1519,4.1535,0,4.1552,0,4.1544,4.1539,4.1539,0,0,0,4.1478,4.1514,4.1509,4.1491,4.1486,4.15,4.1492,4.1518,4.1521,4.1538,4.1552,4.1553,4.1545,4.1539,4.154,4.1655,4.1656,0,0,4.1478,4.1498,4.1507,4.1511,4.1509,4.1491,4.1492,4.1519,4.1536,4.1552,4.1554,4.1546,4.154,4.154,4.1654,4.1656,0,0,0,4.148,4.1498,4.1492,4.151,4.1511,4.1492,4.1493,4.1535,4.1531,4.1554,4.1546,4.154,4.1541,4.1653,4.1655,4.1719,0,0,0,4.1479,4.1499,4.1492,4.1505,4.1511,4.1523,4.1508,4.1529,4.1532,4.1546,4.154,4.1541,4.1652,4.1654,4.1715,4.1746,0,0,0,4.1486,4.15,4.1505,4.1506,4.1513,4.1522,4.152,4.1529,4.1527,4.1539,4.1541,4.1652,4.1654,4.1711,4.174,4.1783,0,0,0,4.1499,4.1562,4.1507,4.1573,4.1513,4.1561,4.152,4.1555,4.1572,4.154,4.1653,4.1655,4.171,4.1736,4.1779,4.1824,4.1844,0,0,4.159,4.1573,4.1611,4.1562,4.1626,4.1557,4.163,4.1627,4.1609,4.1641,4.1643,4.1716,4.174,4.1782,4.1947,4.1963,0,0,0,4.1646,4.1674,4.1686,4.1704,4.1702,4.1704,4.1687,4.1686,4.1712,4.163,4.1742,4.1755,4.1779,4.18,4.1813,4.1833,4.1665,4.1664,4.1664,4.1805,4.1779,4.1839,4.1815,4.1832,4.1814,4.1826,4.1821,4.1789,4.1816,4.1826,4.1929,4.1953,4.1963,4.1984,4.1846,4.1846,4.1846,4.1846,4.1937,4.1972,4.1927,4.197,4.1942,4.1977,4.1962,4.1938,4.1967,4.1919,4.1939,4.189,4.1982,4.1999,4.1851,4.185,4.1849,4.1849,4.1849,4.2039,4.2051,4.2048,4.207,4.209,4.2062,4.2093,4.2065,4.204,4.2059,4.2067,4.2066,4.2063,4.2064,4.2065,4.2065,4.2066,4.2066,4.2066,4.2148,4.2142,4.217,4.2173,4.2181,4.2187,4.2168,4.2175,4.2175,4.2153,4.2153,4.212,4.1995,4.1965,4.2072,4.2071,4.207,4.2069,4.2069,4.2294,4.2256,4.2301,4.2308,4.2309,4.2331,4.2294,4.231,4.2312,4.2328,4.2289,4.2201,4.2183,4.2171,4.2147,4.2294,4.2294,4.2294,4.2294,4.2382,4.2369,4.2408,4.2422,4.2432,4.2403,4.2455,4.244,4.242,4.2419,4.2393,4.2357,4.2347,4.2335,4.232,4.2297,4.2479,4.2479,4.2479,4.2471,4.2457,4.2507,4.2485,4.2484,4.2483,4.2531,4.2548,4.2517,4.2486,4.2418,4.241,4.2352,4.2334,4.2304,4.2282,4.2238,0,0]}]]